Shingle Point, Yukon Territory

1:17 AM PDT on May 27, 2017 (GMT -0700)
Shingle Point

Weather History for CYUA - October, 2012

Change the Weather History Date:

Wednesday, October 10, 2012

  Actual Average Record
Temperature  
Mean Temperature 24 °F -  
Max Temperature 30 °F 16 °F 39 °F (2006)
Min Temperature 19 °F 4 °F 1 °F (2014)
Degree Days  
Heating Degree Days 40    
Moisture  
Dew Point -    
Average Humidity    
Maximum Humidity    
Minimum Humidity    
Precipitation  
Precipitation 0.00 in 0.03 in - ()
Sea Level Pressure  
Sea Level Pressure 30.51 in    
Wind  
Wind Speed 11 mph ()    
Max Wind Speed 24 mph    
Max Gust Speed 28 mph    
Visibility 9.0 miles    
Events      
Averages and records for this station are not official NWS values.
T = Trace of Precipitation, MM = Missing Value Source: Averaged Metar Reports

Daily Weather History Graph

Daily Weather History Graph

Search for Another Location

Airport or City:

Trip Planner

Search our weather history database for the weather conditions in past years. The results will help you decide how hot, cold, wet, or windy it might be!

Date:

Astronomy

Oct. 10, 2012 Rise Set
Actual Time 8:59 AM PDT 6:49 PM PDT
Civil Twilight 8:01 AM PDT 7:48 PM PDT
Nautical Twilight 6:53 AM PDT 8:55 PM PDT
Astronomical Twilight 5:41 AM PDT 10:06 PM PDT
Moon 1:14 AM PDT (10/10) 6:00 PM PDT (10/10)
Length of Visible Light 11h 47m
Length of Day
9h 49m
Waning Crescent, 26% of the Moon is Illuminated
Oct 10
Waning Crescent
Oct 15
New
Oct 21
First Quarter
Oct 29
Full
Nov 6
Last Quarter

Hourly Weather History & Observations

Time (PDT) Temp. Windchill Dew Point Humidity Pressure Visibility Wind Dir Wind Speed Gust Speed Precip Events Conditions
12:00 AM 30.2 °F 21.9 °F - N/A% 30.58 in 9.0 mi WSW 9.2 mph - N/A   Unknown
1:00 AM 30.2 °F 20.8 °F - N/A% 30.58 in 9.0 mi West 11.5 mph - N/A   Unknown
2:00 AM 27 °F - - % 30.57 in 9 mi WSW 9.2 mph - -  
2:00 AM 26.6 °F 17.5 °F - N/A% 30.57 in 9.0 mi WSW 9.2 mph - N/A   Unknown
3:00 AM 24.8 °F 16.1 °F - N/A% 30.58 in 9.0 mi WSW 8.1 mph - N/A   Unknown
4:00 AM 23.0 °F 13.1 °F - N/A% 30.57 in 9.0 mi WSW 9.2 mph - N/A   Unknown
5:00 AM 21 °F - - % 30.56 in 9 mi WSW 8.1 mph - -  
5:00 AM 21.2 °F 11.7 °F - N/A% 30.56 in 9.0 mi WSW 8.1 mph - N/A   Unknown
6:00 AM 21.2 °F 10.9 °F - N/A% 30.56 in 9.0 mi WSW 9.2 mph - N/A   Unknown
7:00 AM 19.4 °F 8.6 °F - N/A% 30.54 in 9.0 mi WSW 9.2 mph - N/A   Unknown
8:00 AM 19 °F - - % 30.53 in 9 mi WSW 9.2 mph - -  
8:00 AM 19.4 °F 8.6 °F - N/A% 30.53 in 9.0 mi WSW 9.2 mph - N/A   Unknown
9:00 AM 19.4 °F 9.5 °F - N/A% 30.53 in 9.0 mi SW 8.1 mph - N/A   Unknown
10:00 AM 21.2 °F 10.9 °F - N/A% 30.51 in 9.0 mi SW 9.2 mph - N/A   Unknown
11:00 AM 26 °F - - % 30.51 in 9 mi WSW 11.5 mph - -  
11:00 AM 26.6 °F 16.8 °F - N/A% 30.51 in 9.0 mi WSW 10.4 mph - N/A   Unknown
12:00 PM 28.4 °F 15.8 °F - N/A% 30.51 in 9.0 mi West 18.4 mph - N/A   Unknown
1:00 PM 30.2 °F 16.8 °F - N/A% 30.50 in 9.0 mi WNW 23.0 mph - N/A   Unknown
2:00 PM 30 °F - - % 30.49 in 9 mi West 20.7 mph - -  
2:00 PM 30.2 °F 16.8 °F - N/A% 30.49 in 9.0 mi West 23.0 mph - N/A   Unknown
3:00 PM 30.2 °F 17.4 °F - N/A% 30.49 in 9.0 mi WNW 20.7 mph - N/A   Unknown
4:00 PM 30.2 °F 16.5 °F - N/A% 30.48 in 9.0 mi WNW 24.2 mph - N/A   Unknown
5:00 PM 30 °F - - % 30.47 in 9 mi WNW 20.7 mph - -  
5:00 PM 30.2 °F 18.1 °F - N/A% 30.47 in 9.0 mi WNW 18.4 mph 27.6 mph N/A   Unknown
6:00 PM 28.4 °F 15.1 °F - N/A% 30.47 in 9.0 mi WNW 20.7 mph - N/A   Unknown
7:00 PM 28.4 °F 15.1 °F - N/A% 30.45 in 9.0 mi WNW 20.7 mph - N/A   Unknown
8:00 PM 27 °F - - % 30.44 in 9 mi WNW 19.6 mph - -  
8:00 PM 26.6 °F 13.4 °F - N/A% 30.44 in 9.0 mi WNW 18.4 mph - N/A   Unknown
9:00 PM 26.6 °F 12.4 °F - N/A% 30.44 in 9.0 mi West 21.9 mph - N/A   Unknown
10:00 PM 24.8 °F 11.9 °F - N/A% 30.43 in 9.0 mi West 16.1 mph - N/A   Unknown
11:00 PM 24.8 °F 12.4 °F - N/A% 30.41 in 9.0 mi West 15.0 mph - N/A   Unknown